N8QQ Weather Reports


Display with metric or nautical units.
time (UTC)temp
F
wind
direction
speed
MPH
gust
MPH
rain 1hr
in
rain 24hr
in
rain mn
in
humidity
%
barometer
mb
20260510141022 63 130 1.0 4.0 0.00 0.00 0.00 60 1010.7
20260510140020 64 104 0.0 2.0 0.00 0.00 0.00 60 1010.6
20260510135101 66 4 0.0 4.0 0.00 0.00 0.00 60 1010.5
20260510134100 65 157 0.0 1.0 0.00 0.00 0.00 61 1010.3
20260510133043 65 225 1.0 4.0 0.00 0.00 0.00 65 1010.0
20260510132026 63 135 0.0 1.0 0.00 0.00 0.00 66 1009.7
20260510131028 63 165 1.0 3.0 0.00 0.00 0.00 67 1009.6
20260510130031 64 82 0.0 3.0 0.00 0.00 0.00 68 1009.6
20260510125017 61 133 2.0 3.0 0.00 0.00 0.00 72 1009.4
20260510124020 58 96 1.0 3.0 0.00 0.00 0.00 79 1009.2
20260510123023 57 142 0.0 2.0 0.00 0.00 0.00 83 1009.0
20260510122027 56 263 0.0 2.0 0.00 0.00 0.00 86 1008.7
20260510121050 55 109 0.0 2.0 0.00 0.00 0.00 88 1008.6
20260510120032 55 112 0.0 1.0 0.00 0.01 0.00 89 1008.5
20260510115018 55 0.0 0.0 0.00 0.01 0.00 90 1008.1
20260510114021 55 0.0 0.0 0.00 0.01 0.00 90 1008.1
20260510113024 55 0.0 0.0 0.00 0.01 0.00 90 1008.1
20260510112027 55 0.0 0.0 0.00 0.01 0.00 88 1008.4
20260510111030 56 86 1.0 3.0 0.00 0.01 0.00 87 1008.4
20260510110016 57 211 1.0 3.0 0.00 0.01 0.00 84 1008.4
20260510105018 57 255 1.0 2.0 0.00 0.01 0.00 84 1008.2
20260510104043 57 202 0.0 1.0 0.00 0.01 0.00 84 1007.7
20260510103019 57 135 0.0 1.0 0.00 0.02 0.00 84 1007.3
20260510102017 57 157 1.0 3.0 0.00 0.02 0.00 85 1007.2
20260510101051 58 102 1.0 2.0 0.00 0.03 0.00 85 1007.1
20260510100016 58 152 0.0 2.0 0.00 0.04 0.00 87 1007.1
20260510095020 57 135 0.0 2.0 0.00 0.04 0.00 88 1006.9
20260510094022 57 239 0.0 3.0 0.00 0.05 0.00 88 1006.8
20260510093025 56 0.0 0.0 0.00 0.06 0.00 88 1006.7
20260510092029 56 0.0 0.0 0.00 0.06 0.00 87 1006.7
20260510091027 56 0.0 0.0 0.00 0.06 0.00 86 1006.5
20260510090029 56 0.0 0.0 0.00 0.06 0.00 86 1006.3
20260510085033 56 0.0 0.0 0.00 0.07 0.00 86 1006.4
20260510084019 56 0.0 0.0 0.00 0.07 0.00 85 1006.4
20260510083101 57 0.0 0.0 0.00 0.08 0.00 85 1006.6
20260510082024 57 0.0 0.0 0.00 0.08 0.00 84 1006.3
20260510081028 57 0.0 0.0 0.00 0.08 0.00 83 1006.0
20260510080030 57 0.0 0.0 0.00 0.08 0.00 83 1005.7
20260510075016 57 136 0.0 3.0 0.00 0.09 0.00 82 1005.4
20260510074020 58 202 0.0 1.0 0.00 0.09 0.00 81 1005.3
20260510073022 58 157 0.0 1.0 0.00 0.10 0.00 80 1005.3
20260510072025 58 0.0 0.0 0.00 0.10 0.00 79 1005.3
20260510071023 59 180 0.0 1.0 0.00 0.10 0.00 79 1005.4
20260510070019 59 209 0.0 2.0 0.00 0.10 0.00 78 1005.5
20260510065016 60 0.0 0.0 0.00 0.10 0.00 78 1005.4
20260510064019 60 143 0.0 2.0 0.00 0.11 0.00 77 1005.5
20260510063022 60 0.0 0.0 0.00 0.11 0.00 76 1005.7
20260510062045 61 202 0.0 2.0 0.00 0.12 0.00 76 1005.8
20260510061050 61 169 0.0 3.0 0.00 0.12 0.00 76 1005.8
20260510060032 61 186 1.0 4.0 0.00 0.12 0.00 75 1005.8
20260510055017 61 196 2.0 5.0 0.00 0.12 0.00 75 1005.7
20260510054020 60 195 1.0 4.0 0.00 0.12 0.00 76 1005.6
20260510053023 60 168 0.0 2.0 0.00 0.12 0.00 75 1005.6
20260510052027 60 198 0.0 2.0 0.00 0.12 0.00 76 1005.7
20260510051029 60 176 0.0 1.0 0.00 0.12 0.00 77 1005.7
20260510050032 59 194 0.0 2.0 0.00 0.12 0.00 76 1005.7
20260510045018 60 212 0.0 2.0 0.00 0.12 0.00 76 1005.8
20260510044101 60 195 0.0 2.0 0.00 0.12 0.00 76 1005.8
20260510043024 59 213 0.0 1.0 0.00 0.12 0.00 76 1005.8
20260510042028 60 202 0.0 1.0 0.00 0.12 0.00 75 1005.6
20260510041051 60 0.0 0.0 0.00 0.12 0.00 74 1005.6
20260510040015 60 191 0.0 2.0 0.00 0.12 0.00 73 1005.7
20260510035019 61 191 0.0 1.0 0.00 0.12 0.12 73 1005.6
20260510034043 61 202 0.0 1.0 0.00 0.12 0.12 73 1005.6
20260510033018 61 192 0.0 1.0 0.00 0.12 0.12 72 1005.5
20260510032036 61 189 0.0 2.0 0.00 0.12 0.12 73 1005.4
20260510031031 60 135 0.0 1.0 0.00 0.12 0.12 74 1005.2
20260510030017 60 200 1.0 3.0 0.00 0.12 0.12 74 1005.1
20260510025019 59 135 0.0 2.0 0.00 0.12 0.12 78 1005.0
20260510024022 59 0.0 0.0 0.00 0.12 0.12 79 1005.0
20260510023026 59 0.0 0.0 0.00 0.12 0.12 78 1005.0
20260510022028 60 0.0 0.0 0.00 0.12 0.12 77 1004.9
20260510021031 60 0.0 0.0 0.00 0.12 0.12 73 1004.8
20260510020022 61 0.0 0.0 0.00 0.12 0.12 73 1004.7
20260510015021 61 0.0 0.0 0.00 0.12 0.12 72 1004.5
20260510014023 62 0.0 0.0 0.00 0.12 0.12 70 1004.3
20260510013031 63 0.0 0.0 0.00 0.12 0.12 69 1004.1
20260510012031 64 0.0 0.0 0.00 0.12 0.12 67 1004.0
20260510011034 65 0.0 0.0 0.00 0.12 0.12 66 1004.0
20260510010038 66 0.0 0.0 0.00 0.12 0.12 64 1003.9
20260510005021 67 0.0 0.0 0.00 0.12 0.12 60 1003.7
20260510004024 68 0.0 0.0 0.00 0.12 0.12 58 1003.4
20260510003027 69 202 0.0 1.0 0.00 0.12 0.12 55 1003.2
20260510002025 70 65 0.0 2.0 0.00 0.12 0.12 54 1003.0
20260510001021 71 206 2.0 6.0 0.00 0.12 0.12 53 1002.9
20260510000018 72 228 0.0 2.0 0.00 0.12 0.12 53 1002.8
20260509235015 72 217 1.0 4.0 0.00 0.12 0.12 52 1002.8
20260509234018 73 256 2.0 4.0 0.00 0.12 0.12 51 1002.7
20260509233021 73 209 2.0 4.0 0.00 0.12 0.12 50 1002.7
20260509232025 74 155 3.0 7.0 0.00 0.12 0.12 48 1002.6
20260509231048 74 207 3.0 6.0 0.00 0.12 0.12 48 1002.5
20260509230112 75 161 2.0 5.0 0.00 0.12 0.12 49 1002.5
20260509225017 76 179 3.0 7.0 0.00 0.12 0.12 49 1002.6
20260509224019 76 205 2.0 6.0 0.00 0.12 0.12 50 1002.4
20260509223022 77 193 2.0 4.0 0.00 0.12 0.12 49 1002.5
20260509222026 77 176 2.0 5.0 0.00 0.12 0.12 50 1002.6
20260509221028 77 214 2.0 5.0 0.00 0.12 0.12 50 1002.6
20260509220111 76 263 3.0 5.0 0.00 0.12 0.12 50 1002.6
20260509215017 77 228 2.0 4.0 0.00 0.12 0.12 50 1002.7
20260509214020 77 237 3.0 4.0 0.00 0.12 0.12 50 1002.6
20260509213023 77 254 2.0 5.0 0.00 0.12 0.12 52 1002.9
20260509212046 78 207 2.0 5.0 0.00 0.12 0.12 52 1002.7
20260509211029 76 83 1.0 4.0 0.00 0.12 0.12 53 1002.7
20260509210027 77 189 3.0 5.0 0.00 0.12 0.12 52 1002.8
20260509205018 77 218 2.0 5.0 0.00 0.12 0.12 53 1002.7
20260509204021 76 193 1.0 4.0 0.00 0.12 0.12 52 1002.8
20260509203039 77 184 3.0 5.0 0.00 0.12 0.12 52 1003.0
20260509202015 76 218 2.0 6.0 0.00 0.12 0.12 55 1003.1
20260509201030 76 218 2.0 4.0 0.00 0.12 0.12 54 1003.2
20260509200015 76 267 1.0 4.0 0.00 0.12 0.12 57 1003.2
20260509195019 76 210 2.0 5.0 0.00 0.12 0.12 55 1003.4
20260509194022 75 146 1.0 3.0 0.00 0.12 0.12 57 1003.5
20260509193025 75 216 3.0 4.0 0.00 0.12 0.12 55 1003.6
20260509192028 76 208 2.0 4.0 0.00 0.12 0.12 58 1003.7
20260509191051 75 198 3.0 5.0 0.00 0.12 0.12 56 1003.7
20260509190016 75 186 3.0 5.0 0.00 0.12 0.12 58 1003.7
20260509185020 74 185 3.0 8.0 0.00 0.12 0.12 58 1003.8
20260509184043 74 320 3.0 5.0 0.00 0.12 0.12 60 1003.9
20260509183107 73 198 3.0 7.0 0.00 0.12 0.12 62 1003.8
20260509182028 73 95 2.0 4.0 0.00 0.12 0.12 61 1004.1
20260509181033 73 269 2.0 4.0 0.00 0.12 0.12 63 1004.0
20260509180017 70 177 3.0 6.0 0.00 0.12 0.12 64 1003.8
20260509175020 71 159 2.0 6.0 0.00 0.12 0.12 65 1003.7
20260509174023 71 243 1.0 3.0 0.00 0.12 0.12 64 1004.0
20260509173046 70 215 2.0 4.0 0.00 0.12 0.12 65 1004.1
20260509172023 70 150 3.0 5.0 0.00 0.12 0.12 63 1004.1
20260509171020 70 162 2.0 4.0 0.00 0.12 0.12 66 1004.1
20260509170018 72 207 3.0 6.0 0.00 0.12 0.12 64 1004.1
20260509165015 71 216 2.0 5.0 0.00 0.12 0.12 66 1004.2
20260509164024 70 215 2.0 5.0 0.00 0.12 0.12 67 1004.3
20260509163028 67 196 2.0 5.0 0.00 0.12 0.12 70 1004.3
20260509162036 67 230 3.0 5.0 0.00 0.12 0.12 69 1004.1
20260509161035 69 131 1.0 3.0 0.00 0.12 0.12 70 1004.1
20260509160018 70 194 1.0 3.0 0.00 0.12 0.12 71 1004.0
20260509155021 67 182 2.0 4.0 0.00 0.12 0.12 75 1004.0
20260509154024 66 22 0.0 1.0 0.00 0.12 0.12 80 1004.0
20260509153027 67 196 1.0 3.0 0.00 0.12 0.12 78 1003.9
20260509152030 66 209 2.0 4.0 0.00 0.12 0.12 80 1003.9
20260509151037 66 69 1.0 3.0 0.00 0.12 0.12 79 1003.8
20260509150038 65 52 1.0 4.0 0.00 0.12 0.12 81 1003.7
20260509145042 66 2 1.0 3.0 0.00 0.12 0.12 82 1003.6
20260509144045 65 247 0.0 1.0 0.00 0.12 0.12 84 1003.6
20260509143028 64 80 1.0 5.0 0.00 0.12 0.12 85 1003.6
20260509142032 65 247 0.0 2.0 0.00 0.12 0.12 88 1003.6